{"data":{"norad_id":67911,"epoch":"2026-05-25T03:19:56.604576Z","epoch_age_seconds":59674,"freshness":"FRESH","line1":"1 67911U 26036H   26145.13884959  .00013613  00000+0  50308-3 0  9998","line2":"2 67911  43.0015 173.5377 0001377 250.3240 109.7463 15.27592948 15419","mean_motion":15.27592948,"eccentricity":0.0001377,"inclination_deg":43.0015,"raan_deg":173.5377,"arg_perigee_deg":250.324,"mean_anomaly_deg":109.7463,"bstar":0.00050308,"rev_number":1541,"period_min":94.26594970115,"perigee_km":482.06554535679,"apogee_km":483.95510533019,"semimajor_km":6861.1473253435,"source":"CELESTRAK","updated_at":"2026-05-25T13:38:21.739000Z"}}